Year,Month,Day,Hour,Minute,Value (Times are PST for temperature in C)
2017,09,06,00,00,21.00
2017,09,06,00,01,21.00
2017,09,06,00,02,21.00
2017,09,06,00,03,21.00
2017,09,06,00,04,21.00
2017,09,06,00,05,20.90
2017,09,06,00,06,20.90
2017,09,06,00,07,20.90
2017,09,06,00,08,20.90
2017,09,06,00,09,20.90
2017,09,06,00,10,20.90
2017,09,06,00,11,20.90
2017,09,06,00,12,20.90
2017,09,06,00,13,20.90
2017,09,06,00,14,20.90
2017,09,06,00,15,20.90
2017,09,06,00,16,20.90
2017,09,06,00,17,20.90
2017,09,06,00,18,20.80
2017,09,06,00,19,20.80
2017,09,06,00,20,20.80
2017,09,06,00,21,20.80
2017,09,06,00,22,20.80
2017,09,06,00,23,20.80
2017,09,06,00,24,20.80
2017,09,06,00,25,20.80
2017,09,06,00,26,20.80
2017,09,06,00,27,20.80
2017,09,06,00,28,20.80
2017,09,06,00,29,20.80
2017,09,06,00,30,20.80
2017,09,06,00,31,20.80
2017,09,06,00,32,20.80
2017,09,06,00,33,20.80
2017,09,06,00,34,20.80
2017,09,06,00,35,20.80
2017,09,06,00,36,20.80
2017,09,06,00,37,20.70
2017,09,06,00,38,20.70
2017,09,06,00,39,20.70
2017,09,06,00,40,20.70
2017,09,06,00,41,20.70
2017,09,06,00,42,20.70
2017,09,06,00,43,20.70
2017,09,06,00,44,20.70
2017,09,06,00,45,20.70
2017,09,06,00,46,20.70
2017,09,06,00,47,20.70
2017,09,06,00,48,20.70
2017,09,06,00,49,20.70
2017,09,06,00,50,20.60
2017,09,06,00,51,20.60
2017,09,06,00,52,20.60
2017,09,06,00,53,20.60
2017,09,06,00,54,20.50
2017,09,06,00,55,20.50
2017,09,06,00,56,20.50
2017,09,06,00,57,20.50
2017,09,06,00,58,20.50
2017,09,06,00,59,20.50
2017,09,06,01,00,20.50
2017,09,06,01,01,20.50
2017,09,06,01,02,20.50
2017,09,06,01,03,20.50
2017,09,06,01,04,20.50
2017,09,06,01,05,20.50
2017,09,06,01,06,20.50
2017,09,06,01,07,20.50
2017,09,06,01,08,20.50
2017,09,06,01,09,20.50
2017,09,06,01,10,20.50
2017,09,06,01,11,20.50
2017,09,06,01,12,20.50
2017,09,06,01,13,20.50
2017,09,06,01,14,20.40
2017,09,06,01,15,20.50
2017,09,06,01,16,20.40
2017,09,06,01,17,20.40
2017,09,06,01,18,20.40
2017,09,06,01,19,20.40
2017,09,06,01,20,20.40
2017,09,06,01,21,20.40
2017,09,06,01,22,20.40
2017,09,06,01,23,20.40
2017,09,06,01,24,20.40
2017,09,06,01,25,20.40
2017,09,06,01,26,20.40
2017,09,06,01,27,20.40
2017,09,06,01,28,20.40
2017,09,06,01,29,20.40
2017,09,06,01,30,20.30
2017,09,06,01,31,20.30
2017,09,06,01,32,20.30
2017,09,06,01,33,20.30
2017,09,06,01,34,20.30
2017,09,06,01,35,20.30
2017,09,06,01,36,20.30
2017,09,06,01,37,20.30
2017,09,06,01,38,20.40
2017,09,06,01,39,20.40
2017,09,06,01,40,20.40
2017,09,06,01,41,20.40
2017,09,06,01,42,20.40
2017,09,06,01,43,20.40
2017,09,06,01,44,20.40
2017,09,06,01,45,20.40
2017,09,06,01,46,20.40
2017,09,06,01,47,20.40
2017,09,06,01,48,20.40
2017,09,06,01,49,20.40
2017,09,06,01,50,20.40
2017,09,06,01,51,20.40
2017,09,06,01,52,20.40
2017,09,06,01,53,20.40
2017,09,06,01,54,20.40
2017,09,06,01,55,20.40
2017,09,06,01,56,20.30
2017,09,06,01,57,20.30
2017,09,06,01,58,20.30
2017,09,06,01,59,20.30
2017,09,06,02,00,20.30
2017,09,06,02,01,20.30
2017,09,06,02,02,20.30
2017,09,06,02,03,20.30
2017,09,06,02,04,20.20
2017,09,06,02,05,20.20
2017,09,06,02,06,20.20
2017,09,06,02,07,20.20
2017,09,06,02,08,20.20
2017,09,06,02,09,20.10
2017,09,06,02,10,20.10
2017,09,06,02,11,20.10
2017,09,06,02,12,20.10
2017,09,06,02,13,20.10
2017,09,06,02,14,20.10
2017,09,06,02,15,20.10
2017,09,06,02,16,20.10
2017,09,06,02,17,20.10
2017,09,06,02,18,20.10
2017,09,06,02,19,20.10
2017,09,06,02,20,20.10
2017,09,06,02,21,20.00
2017,09,06,02,22,20.00
2017,09,06,02,23,20.00
2017,09,06,02,24,20.00
2017,09,06,02,25,20.00
2017,09,06,02,26,20.00
2017,09,06,02,27,20.00
2017,09,06,02,28,19.90
2017,09,06,02,29,19.90
2017,09,06,02,30,19.90
2017,09,06,02,31,19.90
2017,09,06,02,32,19.90
2017,09,06,02,33,19.90
2017,09,06,02,34,19.90
2017,09,06,02,35,19.90
2017,09,06,02,36,19.90
2017,09,06,02,37,19.80
2017,09,06,02,38,19.80
2017,09,06,02,39,19.80
2017,09,06,02,40,19.80
2017,09,06,02,41,19.80
2017,09,06,02,42,19.80
2017,09,06,02,43,19.80
2017,09,06,02,44,19.80
2017,09,06,02,45,19.70
2017,09,06,02,46,19.70
2017,09,06,02,47,19.70
2017,09,06,02,48,19.70
2017,09,06,02,49,19.70
2017,09,06,02,50,19.70
2017,09,06,02,51,19.70
2017,09,06,02,52,19.60
2017,09,06,02,53,19.60
2017,09,06,02,54,19.60
2017,09,06,02,55,19.60
2017,09,06,02,56,19.60
2017,09,06,02,57,19.60
2017,09,06,02,58,19.60
2017,09,06,02,59,19.60
2017,09,06,03,00,19.60
2017,09,06,03,01,19.60
2017,09,06,03,02,19.50
2017,09,06,03,03,19.60
2017,09,06,03,04,19.50
2017,09,06,03,05,19.50
2017,09,06,03,06,19.50
2017,09,06,03,07,19.50
2017,09,06,03,08,19.50
2017,09,06,03,09,19.50
2017,09,06,03,10,19.60
2017,09,06,03,11,19.60
2017,09,06,03,12,19.60
2017,09,06,03,13,19.60
2017,09,06,03,14,19.60
2017,09,06,03,15,19.60
2017,09,06,03,16,19.60
2017,09,06,03,17,19.60
2017,09,06,03,18,19.60
2017,09,06,03,19,19.60
2017,09,06,03,20,19.60
2017,09,06,03,21,19.60
2017,09,06,03,22,19.60
2017,09,06,03,23,19.60
2017,09,06,03,24,19.60
2017,09,06,03,25,19.50
2017,09,06,03,26,19.50
2017,09,06,03,27,19.50
2017,09,06,03,28,19.50
2017,09,06,03,29,19.50
2017,09,06,03,30,19.40
2017,09,06,03,31,19.40
2017,09,06,03,32,19.40
2017,09,06,03,33,19.40
2017,09,06,03,34,19.40
2017,09,06,03,35,19.40
2017,09,06,03,36,19.40
2017,09,06,03,37,19.40
2017,09,06,03,38,19.40
2017,09,06,03,39,19.40
2017,09,06,03,40,19.40
2017,09,06,03,41,19.50
2017,09,06,03,42,19.40
2017,09,06,03,43,19.40
2017,09,06,03,44,19.40
2017,09,06,03,45,19.40
2017,09,06,03,46,19.40
2017,09,06,03,47,19.50
2017,09,06,03,48,19.50
2017,09,06,03,49,19.50
2017,09,06,03,50,19.50
2017,09,06,03,51,19.50
2017,09,06,03,52,19.50
2017,09,06,03,53,19.50
2017,09,06,03,54,19.40
2017,09,06,03,55,19.40
2017,09,06,03,56,19.40
2017,09,06,03,57,19.40
2017,09,06,03,58,19.40
2017,09,06,03,59,19.30
2017,09,06,04,00,19.30
2017,09,06,04,01,19.30
2017,09,06,04,02,19.30
2017,09,06,04,03,19.20
2017,09,06,04,04,19.20
2017,09,06,04,08,19.20
2017,09,06,04,09,19.20
2017,09,06,04,10,19.20
2017,09,06,04,11,19.10
2017,09,06,04,12,19.10
2017,09,06,04,13,19.10
2017,09,06,04,14,19.10
2017,09,06,04,15,19.10
2017,09,06,04,16,19.10
2017,09,06,04,17,19.00
2017,09,06,04,18,19.00
2017,09,06,04,19,18.90
2017,09,06,04,20,18.90
2017,09,06,04,21,18.90
2017,09,06,04,22,18.90
2017,09,06,04,23,18.80
2017,09,06,04,24,18.80
2017,09,06,04,25,18.80
2017,09,06,04,26,18.70
2017,09,06,04,27,18.70
2017,09,06,04,28,18.70
2017,09,06,04,29,18.60
2017,09,06,04,30,18.60
2017,09,06,04,31,18.50
2017,09,06,04,32,18.50
2017,09,06,04,33,18.50
2017,09,06,04,34,18.40
2017,09,06,04,35,18.40
2017,09,06,04,36,18.40
2017,09,06,04,37,18.30
2017,09,06,04,38,18.30
2017,09,06,04,39,18.30
2017,09,06,04,40,18.20
2017,09,06,04,41,18.20
2017,09,06,04,42,18.20
2017,09,06,04,43,18.20
2017,09,06,04,44,18.10
2017,09,06,04,45,18.10
2017,09,06,04,46,18.10
2017,09,06,04,47,18.10
2017,09,06,04,48,18.10
2017,09,06,04,49,18.10
2017,09,06,04,50,18.20
2017,09,06,04,51,18.20
2017,09,06,04,52,18.20
2017,09,06,04,53,18.20
2017,09,06,04,54,18.10
2017,09,06,04,55,18.10
2017,09,06,04,56,18.10
2017,09,06,04,57,18.10
2017,09,06,04,58,18.00
2017,09,06,04,59,18.00
2017,09,06,05,00,18.00
2017,09,06,05,01,18.00
2017,09,06,05,02,17.90
2017,09,06,05,03,17.90
2017,09,06,05,04,17.90
2017,09,06,05,05,17.90
2017,09,06,05,06,17.90
2017,09,06,05,07,17.90
2017,09,06,05,08,17.80
2017,09,06,05,09,17.80
2017,09,06,05,10,17.80
2017,09,06,05,11,17.70
2017,09,06,05,12,17.70
2017,09,06,05,13,17.60
2017,09,06,05,14,17.60
2017,09,06,05,15,17.60
2017,09,06,05,16,17.60
2017,09,06,05,17,17.60
2017,09,06,05,18,17.50
2017,09,06,05,19,17.60
2017,09,06,05,20,17.50
2017,09,06,05,21,17.50
2017,09,06,05,22,17.50
2017,09,06,05,23,17.50
2017,09,06,05,24,17.50
2017,09,06,05,25,17.50
2017,09,06,05,26,17.50
2017,09,06,05,27,17.50
2017,09,06,05,28,17.50
2017,09,06,05,29,17.40
2017,09,06,05,30,17.40
2017,09,06,05,31,17.40
2017,09,06,05,32,17.40
2017,09,06,05,33,17.40
2017,09,06,05,34,17.30
2017,09,06,05,35,17.30
2017,09,06,05,36,17.30
2017,09,06,05,37,17.30
2017,09,06,05,38,17.20
2017,09,06,05,39,17.20
2017,09,06,05,40,17.10
2017,09,06,05,41,17.10
2017,09,06,05,42,17.10
2017,09,06,05,43,17.00
2017,09,06,05,44,17.00
2017,09,06,05,45,16.90
2017,09,06,05,46,16.90
2017,09,06,05,47,16.90
2017,09,06,05,48,16.90
2017,09,06,05,49,16.90
2017,09,06,05,50,16.90
2017,09,06,05,51,16.80
2017,09,06,05,52,16.80
2017,09,06,05,53,16.80
2017,09,06,05,54,16.80
2017,09,06,05,55,16.70
2017,09,06,05,56,16.70
2017,09,06,05,57,16.70
2017,09,06,05,58,16.70
2017,09,06,05,59,16.70
2017,09,06,06,00,16.70
2017,09,06,06,01,16.70
2017,09,06,06,02,16.60
2017,09,06,06,03,16.60
2017,09,06,06,04,16.60
2017,09,06,06,05,16.60
2017,09,06,06,06,16.60
2017,09,06,06,07,16.60
2017,09,06,06,08,16.60
2017,09,06,06,09,16.60
2017,09,06,06,10,16.60
2017,09,06,06,11,16.50
2017,09,06,06,12,16.50
2017,09,06,06,13,16.50
2017,09,06,06,14,16.50
2017,09,06,06,15,16.50
2017,09,06,06,16,16.50
2017,09,06,06,17,16.50
2017,09,06,06,18,16.50
2017,09,06,06,19,16.60
2017,09,06,06,20,16.60
2017,09,06,06,21,16.60
2017,09,06,06,22,16.60
2017,09,06,06,23,16.60
2017,09,06,06,24,16.60
2017,09,06,06,25,16.60
2017,09,06,06,26,16.60
2017,09,06,06,27,16.60
2017,09,06,06,28,16.60
2017,09,06,06,29,16.60
2017,09,06,06,30,16.60
2017,09,06,06,31,16.60
2017,09,06,06,32,16.60
2017,09,06,06,33,16.60
2017,09,06,06,34,16.60
2017,09,06,06,35,16.60
2017,09,06,06,36,16.60
2017,09,06,06,37,16.60
2017,09,06,06,38,16.60
2017,09,06,06,39,16.60
2017,09,06,06,40,16.60
2017,09,06,06,41,16.60
2017,09,06,06,42,16.70
2017,09,06,06,43,16.70
2017,09,06,06,44,16.70
2017,09,06,06,45,16.70
2017,09,06,06,46,16.70
2017,09,06,06,47,16.70
2017,09,06,06,48,16.70
2017,09,06,06,49,16.70
2017,09,06,06,50,16.70
2017,09,06,06,51,16.70
2017,09,06,06,52,16.70
2017,09,06,06,53,16.70
2017,09,06,06,54,16.70
2017,09,06,06,55,16.70
2017,09,06,06,56,16.70
2017,09,06,06,57,16.70
2017,09,06,06,58,16.70
2017,09,06,06,59,16.70
2017,09,06,07,00,16.70
2017,09,06,07,01,16.70
2017,09,06,07,02,16.70
2017,09,06,07,03,16.70
2017,09,06,07,04,16.70
2017,09,06,07,05,16.70
2017,09,06,07,06,16.70
2017,09,06,07,07,16.70
2017,09,06,07,08,16.70
2017,09,06,07,09,16.70
2017,09,06,07,10,16.70
2017,09,06,07,11,16.70
2017,09,06,07,12,16.70
2017,09,06,07,13,16.70
2017,09,06,07,14,16.70
2017,09,06,07,15,16.70
2017,09,06,07,16,16.70
2017,09,06,07,17,16.70
2017,09,06,07,18,16.70
2017,09,06,07,19,16.70
2017,09,06,07,20,16.70
2017,09,06,07,21,16.70
2017,09,06,07,22,16.70
2017,09,06,07,23,16.70
2017,09,06,07,24,16.80
2017,09,06,07,25,16.80
2017,09,06,07,26,16.80
2017,09,06,07,27,16.80
2017,09,06,07,28,16.80
2017,09,06,07,29,16.80
2017,09,06,07,30,16.80
2017,09,06,07,31,16.80
2017,09,06,07,32,16.80
2017,09,06,07,33,16.80
2017,09,06,07,34,16.80
2017,09,06,07,35,16.90
2017,09,06,07,36,16.90
2017,09,06,07,37,16.90
2017,09,06,07,38,16.90
2017,09,06,07,39,16.90
2017,09,06,07,40,16.90
2017,09,06,07,41,17.00
2017,09,06,07,42,17.00
2017,09,06,07,43,17.00
2017,09,06,07,44,17.00
2017,09,06,07,45,17.10
2017,09,06,07,46,17.10
2017,09,06,07,47,17.10
2017,09,06,07,48,17.20
2017,09,06,07,49,17.20
2017,09,06,07,50,17.20
2017,09,06,07,51,17.20
2017,09,06,07,52,17.20
2017,09,06,07,53,17.20
2017,09,06,07,54,17.20
2017,09,06,07,55,17.20
2017,09,06,07,56,17.20
2017,09,06,07,57,17.30
2017,09,06,07,58,17.30
2017,09,06,07,59,17.30
2017,09,06,08,00,17.30
2017,09,06,08,01,17.30
2017,09,06,08,02,17.30
2017,09,06,08,03,17.40
2017,09,06,08,04,17.40
2017,09,06,08,05,17.40
2017,09,06,08,06,17.40
2017,09,06,08,07,17.40
2017,09,06,08,08,17.40
2017,09,06,08,09,17.40
2017,09,06,08,10,17.40
2017,09,06,08,11,17.40
2017,09,06,08,12,17.40
2017,09,06,08,13,17.40
2017,09,06,08,14,17.50
2017,09,06,08,15,17.50
2017,09,06,08,16,17.50
2017,09,06,08,17,17.50
2017,09,06,08,18,17.50
2017,09,06,08,19,17.60
2017,09,06,08,20,17.60
2017,09,06,08,21,17.60
2017,09,06,08,22,17.60
2017,09,06,08,23,17.60
2017,09,06,08,24,17.60
2017,09,06,08,25,17.70
2017,09,06,08,26,17.70
2017,09,06,08,27,17.70
2017,09,06,08,28,17.70
2017,09,06,08,29,17.70
2017,09,06,08,30,17.70
2017,09,06,08,31,17.70
2017,09,06,08,32,17.70
2017,09,06,08,33,17.70
2017,09,06,08,34,17.70
2017,09,06,08,35,17.70
2017,09,06,08,36,17.70
2017,09,06,08,37,17.60
2017,09,06,08,38,17.60
2017,09,06,08,39,17.60
2017,09,06,08,40,17.50
2017,09,06,08,41,17.50
2017,09,06,08,42,17.50
2017,09,06,08,43,17.50
2017,09,06,08,44,17.50
2017,09,06,08,45,17.40
2017,09,06,08,46,17.40
2017,09,06,08,47,17.40
2017,09,06,08,48,17.40
2017,09,06,08,49,17.50
2017,09,06,08,50,17.50
2017,09,06,08,51,17.50
2017,09,06,08,52,17.50
2017,09,06,08,53,17.50
2017,09,06,08,54,17.60
2017,09,06,08,55,17.60
2017,09,06,08,56,17.60
2017,09,06,08,57,17.60
2017,09,06,08,58,17.60
2017,09,06,08,59,17.60
2017,09,06,09,00,17.60
2017,09,06,09,01,17.60
2017,09,06,09,02,17.60
2017,09,06,09,03,17.60
2017,09,06,09,04,17.60
2017,09,06,09,05,17.70
2017,09,06,09,06,17.70
2017,09,06,09,07,17.70
2017,09,06,09,08,17.70
2017,09,06,09,09,17.70
2017,09,06,09,10,17.70
2017,09,06,09,11,17.70
2017,09,06,09,12,17.80
2017,09,06,09,13,17.80
2017,09,06,09,14,17.80
2017,09,06,09,15,17.80
2017,09,06,09,16,17.80
2017,09,06,09,17,17.80
2017,09,06,09,18,17.80
2017,09,06,09,19,17.80
2017,09,06,09,20,17.80
2017,09,06,09,21,17.80
2017,09,06,09,22,17.90
2017,09,06,09,23,17.90
2017,09,06,09,24,17.90
2017,09,06,09,25,17.90
2017,09,06,09,26,17.90
2017,09,06,09,27,18.00
2017,09,06,09,28,18.00
2017,09,06,09,29,18.00
2017,09,06,09,30,18.00
2017,09,06,09,31,18.00
2017,09,06,09,32,18.10
2017,09,06,09,33,18.10
2017,09,06,09,34,18.10
2017,09,06,09,35,18.10
2017,09,06,09,36,18.20
2017,09,06,09,37,18.20
2017,09,06,09,38,18.20
2017,09,06,09,39,18.20
2017,09,06,09,40,18.20
2017,09,06,09,41,18.20
2017,09,06,09,42,18.20
2017,09,06,09,43,18.30
2017,09,06,09,44,18.30
2017,09,06,09,45,18.30
2017,09,06,09,46,18.30
2017,09,06,09,47,18.30
2017,09,06,09,48,18.30
2017,09,06,09,49,18.30
2017,09,06,09,50,18.20
2017,09,06,09,51,18.20
2017,09,06,09,52,18.20
2017,09,06,09,53,18.20
2017,09,06,09,54,18.30
2017,09,06,09,55,18.30
2017,09,06,09,56,18.30
2017,09,06,09,57,18.30
2017,09,06,09,58,18.30
2017,09,06,09,59,18.30
2017,09,06,10,00,18.40
2017,09,06,10,01,18.40
2017,09,06,10,02,18.40
2017,09,06,10,03,18.40
2017,09,06,10,04,18.50
2017,09,06,10,05,18.50
2017,09,06,10,06,18.60
2017,09,06,10,07,18.60
2017,09,06,10,08,18.60
2017,09,06,10,09,18.70
2017,09,06,10,10,18.70
2017,09,06,10,11,18.80
2017,09,06,10,12,18.80
2017,09,06,10,13,18.80
2017,09,06,10,14,18.80
2017,09,06,10,15,18.80
2017,09,06,10,16,18.80
2017,09,06,10,17,18.80
2017,09,06,10,18,18.80
2017,09,06,10,19,18.80
2017,09,06,10,20,18.80
2017,09,06,10,21,18.80
2017,09,06,10,22,18.80
2017,09,06,10,23,18.80
2017,09,06,10,24,18.80
2017,09,06,10,25,18.70
2017,09,06,10,26,18.70
2017,09,06,10,27,18.70
2017,09,06,10,28,18.70
2017,09,06,10,29,18.80
2017,09,06,10,30,18.80
2017,09,06,10,31,18.80
2017,09,06,10,32,18.80
2017,09,06,10,33,18.90
2017,09,06,10,34,18.90
2017,09,06,10,35,18.90
2017,09,06,10,36,18.90
2017,09,06,10,37,18.80
2017,09,06,10,38,18.70
2017,09,06,10,39,18.60
2017,09,06,10,40,18.50
2017,09,06,10,41,18.50
2017,09,06,10,42,18.40
2017,09,06,10,43,18.40
2017,09,06,10,44,18.30
2017,09,06,10,45,18.30
2017,09,06,10,46,18.30
2017,09,06,10,47,18.30
2017,09,06,10,48,18.30
2017,09,06,10,49,18.30
2017,09,06,10,50,18.30
2017,09,06,10,51,18.30
2017,09,06,10,52,18.30
2017,09,06,10,53,18.20
2017,09,06,10,54,18.20
2017,09,06,10,55,18.20
2017,09,06,10,56,18.10
2017,09,06,10,57,18.00
2017,09,06,10,58,18.00
2017,09,06,10,59,17.90
2017,09,06,11,00,17.90
2017,09,06,11,01,17.90
2017,09,06,11,02,17.80
2017,09,06,11,03,17.80
2017,09,06,11,04,17.80
2017,09,06,11,05,17.80
2017,09,06,11,06,17.80
2017,09,06,11,07,17.70
2017,09,06,11,08,17.60
2017,09,06,11,09,17.50
2017,09,06,11,10,17.50
2017,09,06,11,11,17.50
2017,09,06,11,12,17.40
2017,09,06,11,13,17.40
2017,09,06,11,14,17.40
2017,09,06,11,15,17.30
2017,09,06,11,16,17.30
2017,09,06,11,17,17.30
2017,09,06,11,18,17.30
2017,09,06,11,19,17.20
2017,09,06,11,20,17.20
2017,09,06,11,21,17.20
2017,09,06,11,22,17.20
2017,09,06,11,23,17.20
2017,09,06,11,24,17.30
2017,09,06,11,25,17.30
2017,09,06,11,26,17.30
2017,09,06,11,27,17.40
2017,09,06,11,28,17.40
2017,09,06,11,29,17.50
2017,09,06,11,30,17.50
2017,09,06,11,31,17.60
2017,09,06,11,32,17.60
2017,09,06,11,33,17.70
2017,09,06,11,34,17.70
2017,09,06,11,35,17.70
2017,09,06,11,36,17.70
2017,09,06,11,37,17.70
2017,09,06,11,38,17.80
2017,09,06,11,39,17.80
2017,09,06,11,40,17.80
2017,09,06,11,41,17.90
2017,09,06,11,42,17.90
2017,09,06,11,43,18.00
2017,09,06,11,44,18.00
2017,09,06,11,45,18.10
2017,09,06,11,46,18.10
2017,09,06,11,47,18.10
2017,09,06,11,48,18.20
2017,09,06,11,49,18.20
2017,09,06,11,50,18.30
2017,09,06,11,51,18.40
2017,09,06,11,52,18.40
2017,09,06,11,53,18.50
2017,09,06,11,54,18.60
2017,09,06,11,55,18.70
2017,09,06,11,56,18.70
2017,09,06,11,57,18.80
2017,09,06,11,58,18.90
2017,09,06,11,59,19.00
2017,09,06,12,00,19.10
2017,09,06,12,01,19.10
2017,09,06,12,02,19.20
2017,09,06,12,03,19.30
2017,09,06,12,04,19.30
2017,09,06,12,05,19.30
2017,09,06,12,06,19.30
2017,09,06,12,07,19.30
2017,09,06,12,08,19.30
2017,09,06,12,09,19.30
2017,09,06,12,10,19.40
2017,09,06,12,11,19.40
2017,09,06,12,12,19.40
2017,09,06,12,13,19.40
2017,09,06,12,14,19.40
2017,09,06,12,15,19.50
2017,09,06,12,16,19.50
2017,09,06,12,17,19.60
2017,09,06,12,18,19.70
2017,09,06,12,19,19.70
2017,09,06,12,20,19.80
2017,09,06,12,21,19.90
2017,09,06,12,22,19.90
2017,09,06,12,23,19.90
2017,09,06,12,24,20.00
2017,09,06,12,25,20.00
2017,09,06,12,26,20.10
2017,09,06,12,27,20.20
2017,09,06,12,28,20.20
2017,09,06,12,29,20.30
2017,09,06,12,30,20.40
2017,09,06,12,31,20.50
2017,09,06,12,32,20.50
2017,09,06,12,33,20.60
2017,09,06,12,34,20.70
2017,09,06,12,35,20.80
2017,09,06,12,36,20.80
2017,09,06,12,37,20.90
2017,09,06,12,38,20.90
2017,09,06,12,39,21.00
2017,09,06,12,40,21.10
2017,09,06,12,41,21.10
2017,09,06,12,42,21.10
2017,09,06,12,43,21.10
2017,09,06,12,44,21.10
2017,09,06,12,45,21.10
2017,09,06,12,46,21.10
2017,09,06,12,47,21.10
2017,09,06,12,48,21.10
2017,09,06,12,49,21.00
2017,09,06,12,50,21.00
2017,09,06,12,51,21.00
2017,09,06,12,52,20.90
2017,09,06,12,53,21.00
2017,09,06,12,54,21.00
2017,09,06,12,55,21.00
2017,09,06,12,56,21.10
2017,09,06,12,57,21.10
2017,09,06,12,58,21.10
2017,09,06,12,59,21.10
2017,09,06,13,00,21.20
2017,09,06,13,01,21.20
2017,09,06,13,02,21.20
2017,09,06,13,03,21.30
2017,09,06,13,04,21.30
2017,09,06,13,05,21.30
2017,09,06,13,06,21.30
2017,09,06,13,07,21.30
2017,09,06,13,08,21.30
2017,09,06,13,09,21.30
2017,09,06,13,10,21.30
2017,09,06,13,11,21.30
2017,09,06,13,12,21.30
2017,09,06,13,13,21.30
2017,09,06,13,14,21.40
2017,09,06,13,15,21.40
2017,09,06,13,16,21.50
2017,09,06,13,17,21.50
2017,09,06,13,18,21.50
2017,09,06,13,19,21.60
2017,09,06,13,20,21.60
2017,09,06,13,21,21.60
2017,09,06,13,22,21.70
2017,09,06,13,23,21.70
2017,09,06,13,24,21.80
2017,09,06,13,25,21.90
2017,09,06,13,26,21.90
2017,09,06,13,27,22.00
2017,09,06,13,28,22.00
2017,09,06,13,29,22.00
2017,09,06,13,30,22.00
2017,09,06,13,31,22.00
2017,09,06,13,32,22.00
2017,09,06,13,33,22.00
2017,09,06,13,34,21.90
2017,09,06,13,35,21.90
2017,09,06,13,36,21.90
2017,09,06,13,37,21.90
2017,09,06,13,38,22.00
2017,09,06,13,39,22.00
2017,09,06,13,40,22.00
2017,09,06,13,41,22.10
2017,09,06,13,42,22.10
2017,09,06,13,43,22.10
2017,09,06,13,44,22.20
2017,09,06,13,45,22.30
2017,09,06,13,46,22.30
2017,09,06,13,47,22.30
2017,09,06,13,48,22.40
2017,09,06,13,49,22.40
2017,09,06,13,50,22.40
2017,09,06,13,51,22.40
2017,09,06,13,52,22.40
2017,09,06,13,53,22.40
2017,09,06,13,54,22.40
2017,09,06,13,55,22.40
2017,09,06,13,56,22.40
2017,09,06,13,57,22.40
2017,09,06,13,58,22.40
2017,09,06,13,59,22.40
2017,09,06,14,00,22.40
2017,09,06,14,01,22.40
2017,09,06,14,02,22.40
2017,09,06,14,03,22.50
2017,09,06,14,04,22.50
2017,09,06,14,05,22.50
2017,09,06,14,06,22.50
2017,09,06,14,07,22.50
2017,09,06,14,08,22.50
2017,09,06,14,09,22.50
2017,09,06,14,10,22.50
2017,09,06,14,11,22.40
2017,09,06,14,12,22.40
2017,09,06,14,13,22.40
2017,09,06,14,14,22.40
2017,09,06,14,15,22.40
2017,09,06,14,16,22.50
2017,09,06,14,17,22.50
2017,09,06,14,18,22.50
2017,09,06,14,19,22.50
2017,09,06,14,20,22.50
2017,09,06,14,21,22.60
2017,09,06,14,22,22.60
2017,09,06,14,23,22.60
2017,09,06,14,24,22.50
2017,09,06,14,25,22.50
2017,09,06,14,26,22.50
2017,09,06,14,27,22.50
2017,09,06,14,28,22.50
2017,09,06,14,29,22.50
2017,09,06,14,30,22.50
2017,09,06,14,31,22.50
2017,09,06,14,32,22.50
2017,09,06,14,33,22.50
2017,09,06,14,34,22.50
2017,09,06,14,35,22.60
2017,09,06,14,36,22.60
2017,09,06,14,37,22.60
2017,09,06,14,38,22.60
2017,09,06,14,39,22.60
2017,09,06,14,40,22.60
2017,09,06,14,41,22.60
2017,09,06,14,42,22.60
2017,09,06,14,43,22.60
2017,09,06,14,44,22.70
2017,09,06,14,45,22.70
2017,09,06,14,46,22.70
2017,09,06,14,47,22.80
2017,09,06,14,48,22.80
2017,09,06,14,49,22.80
2017,09,06,14,50,22.90
2017,09,06,14,51,23.00
2017,09,06,14,52,23.00
2017,09,06,14,53,23.00
2017,09,06,14,54,23.10
2017,09,06,14,55,23.10
2017,09,06,14,56,23.10
2017,09,06,14,57,23.10
2017,09,06,14,58,23.10
2017,09,06,14,59,23.10
2017,09,06,15,00,23.10
2017,09,06,15,01,23.10
2017,09,06,15,02,23.10
2017,09,06,15,03,23.10
2017,09,06,15,04,23.10
2017,09,06,15,05,23.10
2017,09,06,15,06,23.20
2017,09,06,15,07,23.20
2017,09,06,15,08,23.20
2017,09,06,15,09,23.20
2017,09,06,15,10,23.20
2017,09,06,15,11,23.20
2017,09,06,15,12,23.20
2017,09,06,15,13,23.30
2017,09,06,15,14,23.30
2017,09,06,15,15,23.30
2017,09,06,15,16,23.30
2017,09,06,15,17,23.30
2017,09,06,15,18,23.30
2017,09,06,15,19,23.30
2017,09,06,15,20,23.30
2017,09,06,15,21,23.30
2017,09,06,15,22,23.30
2017,09,06,15,23,23.30
2017,09,06,15,24,23.30
2017,09,06,15,25,23.30
2017,09,06,15,26,23.20
2017,09,06,15,27,23.20
2017,09,06,15,28,23.20
2017,09,06,15,29,23.20
2017,09,06,15,30,23.10
2017,09,06,15,31,23.10
2017,09,06,15,32,23.10
2017,09,06,15,33,23.00
2017,09,06,15,34,23.00
2017,09,06,15,35,22.90
2017,09,06,15,36,22.90
2017,09,06,15,37,22.90
2017,09,06,15,38,22.90
2017,09,06,15,39,22.90
2017,09,06,15,40,22.80
2017,09,06,15,41,22.80
2017,09,06,15,42,22.80
2017,09,06,15,43,22.80
2017,09,06,15,44,22.80
2017,09,06,15,45,22.70
2017,09,06,15,46,22.70
2017,09,06,15,47,22.70
2017,09,06,15,48,22.70
2017,09,06,15,49,22.60
2017,09,06,15,50,22.60
2017,09,06,15,51,22.60
2017,09,06,15,52,22.60
2017,09,06,15,53,22.50
2017,09,06,15,54,22.50
2017,09,06,15,55,22.50
2017,09,06,15,56,22.50
2017,09,06,15,57,22.40
2017,09,06,15,58,22.40
2017,09,06,15,59,22.40
2017,09,06,16,00,22.40
2017,09,06,16,01,22.40
2017,09,06,16,02,22.40
2017,09,06,16,03,22.40
2017,09,06,16,04,22.40
2017,09,06,16,05,22.40
2017,09,06,16,06,22.40
2017,09,06,16,07,22.40
2017,09,06,16,08,22.30
2017,09,06,16,09,22.30
2017,09,06,16,10,22.30
2017,09,06,16,11,22.30
2017,09,06,16,12,22.30
2017,09,06,16,13,22.30
2017,09,06,16,14,22.30
2017,09,06,16,15,22.30
2017,09,06,16,16,22.40
2017,09,06,16,17,22.40
2017,09,06,16,18,22.40
2017,09,06,16,19,22.40
2017,09,06,16,20,22.40
2017,09,06,16,21,22.40
2017,09,06,16,22,22.50
2017,09,06,16,23,22.50
2017,09,06,16,24,22.50
2017,09,06,16,25,22.50
2017,09,06,16,26,22.50
2017,09,06,16,27,22.50
2017,09,06,16,28,22.50
2017,09,06,16,29,22.40
2017,09,06,16,30,22.40
2017,09,06,16,31,22.40
2017,09,06,16,32,22.30
2017,09,06,16,33,22.30
2017,09,06,16,34,22.20
2017,09,06,16,35,22.00
2017,09,06,16,36,21.90
2017,09,06,16,37,21.80
2017,09,06,16,38,21.60
2017,09,06,16,39,21.40
2017,09,06,16,40,21.20
2017,09,06,16,41,21.00
2017,09,06,16,42,20.80
2017,09,06,16,43,20.60
2017,09,06,16,44,20.40
2017,09,06,16,45,20.30
2017,09,06,16,46,20.20
2017,09,06,16,47,20.20
2017,09,06,16,48,20.10
2017,09,06,16,49,20.10
2017,09,06,16,50,20.00
2017,09,06,16,51,20.00
2017,09,06,16,52,19.90
2017,09,06,16,53,19.90
2017,09,06,16,54,19.80
2017,09,06,16,55,19.80
2017,09,06,16,56,19.80
2017,09,06,16,57,19.70
2017,09,06,16,58,19.70
2017,09,06,16,59,19.70
2017,09,06,17,00,19.60
2017,09,06,17,01,19.60
2017,09,06,17,02,19.60
2017,09,06,17,03,19.60
2017,09,06,17,04,19.60
2017,09,06,17,05,19.60
2017,09,06,17,06,19.60
2017,09,06,17,07,19.50
2017,09,06,17,08,19.50
2017,09,06,17,09,19.50
2017,09,06,17,10,19.40
2017,09,06,17,11,19.30
2017,09,06,17,12,19.30
2017,09,06,17,13,19.20
2017,09,06,17,14,19.20
2017,09,06,17,15,19.10
2017,09,06,17,16,19.10
2017,09,06,17,17,19.10
2017,09,06,17,18,19.10
2017,09,06,17,19,19.00
2017,09,06,17,20,19.00
2017,09,06,17,21,19.00
2017,09,06,17,22,19.00